RYR49HH EDLV-GMMX

Flight info

Callsign RYR49HH
Flight time 3h 39m
Altitude 36000
Route VEBAK2R VEBAK Z283 MODRU Z717 MAS UM617 CIV DCT KOVIN DCT DUCRA UM728 RESMI UN857 DISAK DCT DIRMO DCT ARTAX DCT BEBIX DCT LMG DCT UVELI DCT OSMOB DCT VAVIX DCT NETUK DCT PPN DCT NOLSA N857 BAN DCT PINAR DCT CJN DCT INTAX DCT NASOS DCT ANZAN DCT BLN DCT MGA N869 GALTO UN869 SLK UZ801 VALBA UG850 OBOGA
Aircraft B738/M-SDE3FGILRWY/SB1

Departure

Time 2026-05-07 11:38
Airport Weeze (Niederrhein) Airport (EDLV)

Arrival

Time 2026-05-07 15:18
Airport Marrakesh Menara Airport (GMMX)
Time Latitude Longitude Altitude Speed Heading
2026-05-07 11:15 51.59920 6.14863 110 ft 0 kts 92°
2026-05-07 11:28 51.59920 6.14857 110 ft 2 kts 91°
2026-05-07 11:28 51.59920 6.14831 107 ft 2 kts 91°
2026-05-07 11:28 51.59921 6.14804 108 ft 2 kts 90°
2026-05-07 11:29 51.59921 6.14777 107 ft 2 kts 90°
2026-05-07 11:29 51.59921 6.14764 110 ft 0 kts 92°
2026-05-07 11:31 51.59929 6.14787 108 ft 5 kts 43°
2026-05-07 11:31 51.59984 6.14798 110 ft 11 kts 360°
2026-05-07 11:32 51.60048 6.14578 109 ft 16 kts 270°
2026-05-07 11:32 51.60052 6.14396 109 ft 16 kts 272°
2026-05-07 11:32 51.60055 6.14212 108 ft 16 kts 271°
2026-05-07 11:33 51.60059 6.14033 108 ft 16 kts 271°
2026-05-07 11:33 51.60063 6.13852 107 ft 17 kts 272°
2026-05-07 11:33 51.60067 6.13664 107 ft 17 kts 272°
2026-05-07 11:33 51.60072 6.13474 106 ft 17 kts 272°
2026-05-07 11:34 51.60076 6.13296 106 ft 16 kts 272°
2026-05-07 11:34 51.60080 6.13117 105 ft 16 kts 272°
2026-05-07 11:34 51.60083 6.12943 105 ft 15 kts 272°
2026-05-07 11:34 51.60087 6.12790 104 ft 14 kts 272°
2026-05-07 11:35 51.60090 6.12625 104 ft 15 kts 272°
2026-05-07 11:35 51.60094 6.12489 102 ft 8 kts 280°
2026-05-07 11:35 51.60138 6.12455 103 ft 8 kts
2026-05-07 11:35 51.60178 6.12458 103 ft 0 kts
2026-05-07 11:36 51.60181 6.12459 103 ft 1 kts
2026-05-07 11:36 51.60194 6.12460 103 ft 3 kts
2026-05-07 11:36 51.60221 6.12462 103 ft 5 kts
2026-05-07 11:36 51.60261 6.12467 103 ft 6 kts 14°
2026-05-07 11:37 51.60283 6.12527 102 ft 7 kts 86°
2026-05-07 11:37 51.60283 6.12598 102 ft 0 kts 91°
2026-05-07 11:37 51.60283 6.12604 102 ft 6 kts 91°
2026-05-07 11:37 51.60272 6.13063 103 ft 79 kts 91°
2026-05-07 11:38 51.60243 6.14338 107 ft 145 kts 91°
2026-05-07 11:38 51.60214 6.16193 391 ft 176 kts 90°
2026-05-07 11:38 51.60158 6.18127 1321 ft 171 kts 90°
2026-05-07 11:38 51.60092 6.20075 2116 ft 178 kts 90°
2026-05-07 11:39 51.60041 6.22217 2545 ft 202 kts 90°
2026-05-07 11:39 51.59980 6.24503 2980 ft 217 kts 90°
2026-05-07 11:39 51.59901 6.27061 3261 ft 236 kts 90°
2026-05-07 11:39 51.59812 6.29723 3874 ft 240 kts 90°
2026-05-07 11:40 51.59766 6.32403 4502 ft 243 kts 89°
2026-05-07 11:40 51.59724 6.35187 4977 ft 256 kts 90°
2026-05-07 11:40 51.59656 6.38134 5504 ft 269 kts 95°
2026-05-07 11:40 51.58942 6.40953 6351 ft 274 kts 128°
2026-05-07 11:41 51.57444 6.42880 7146 ft 280 kts 158°
2026-05-07 11:41 51.55572 6.43218 7910 ft 281 kts 192°
2026-05-07 11:41 51.53801 6.41794 8745 ft 280 kts 222°
2026-05-07 11:41 51.52366 6.39781 9550 ft 283 kts 217°
2026-05-07 11:42 51.50662 6.38074 10297 ft 288 kts 208°
2026-05-07 11:42 51.48782 6.36667 10561 ft 310 kts 203°
2026-05-07 11:42 51.46740 6.35351 10749 ft 332 kts 202°
2026-05-07 11:42 51.44487 6.33986 11101 ft 348 kts 201°
2026-05-07 11:43 51.42244 6.32666 11765 ft 352 kts 201°
2026-05-07 11:43 51.39957 6.31325 12528 ft 354 kts 201°
2026-05-07 11:43 51.37567 6.29919 13261 ft 358 kts 201°
2026-05-07 11:43 51.35301 6.28580 13942 ft 361 kts 201°
2026-05-07 11:44 51.32899 6.27161 14588 ft 364 kts 201°
2026-05-07 11:44 51.30506 6.25753 15249 ft 367 kts 201°
2026-05-07 11:44 51.28104 6.24345 15889 ft 370 kts 201°
2026-05-07 11:44 51.25668 6.22920 16504 ft 374 kts 201°
2026-05-07 11:45 51.23233 6.21497 17131 ft 377 kts 201°
2026-05-07 11:45 51.20746 6.20044 17765 ft 380 kts 201°
2026-05-07 11:45 51.18258 6.18591 18379 ft 383 kts 201°
2026-05-07 11:45 51.15743 6.17125 18926 ft 386 kts 201°
2026-05-07 11:46 51.13409 6.15768 19385 ft 389 kts 201°
2026-05-07 11:46 51.10840 6.14279 19905 ft 392 kts 201°
2026-05-07 11:46 51.08271 6.12794 20430 ft 395 kts 201°
2026-05-07 11:46 51.05675 6.11294 20940 ft 397 kts 201°
2026-05-07 11:47 51.03194 6.09390 21411 ft 399 kts 215°
2026-05-07 11:47 51.01088 6.06553 21904 ft 401 kts 228°
2026-05-07 11:47 50.99445 6.02959 22390 ft 403 kts 241°
2026-05-07 11:47 50.98104 5.99018 22885 ft 406 kts 242°
2026-05-07 11:48 50.96916 5.94886 23317 ft 409 kts 251°
2026-05-07 11:48 50.96139 5.90537 23747 ft 412 kts 255°
2026-05-07 11:48 50.95408 5.86164 24127 ft 414 kts 255°
2026-05-07 11:48 50.94648 5.81758 24519 ft 417 kts 254°
2026-05-07 11:49 50.93862 5.77344 24903 ft 419 kts 254°
2026-05-07 11:49 50.93053 5.72864 25289 ft 421 kts 254°
2026-05-07 11:49 50.92249 5.68406 25643 ft 423 kts 254°
2026-05-07 11:49 50.91439 5.63904 25999 ft 426 kts 254°
2026-05-07 11:50 50.90634 5.59428 26347 ft 428 kts 254°
2026-05-07 11:50 50.89849 5.55068 26682 ft 430 kts 254°
2026-05-07 11:50 50.88979 5.50255 27049 ft 432 kts 254°
2026-05-07 11:50 50.88183 5.45857 27376 ft 434 kts 254°
2026-05-07 11:51 50.87340 5.41212 27713 ft 436 kts 254°
2026-05-07 11:51 50.86495 5.36572 28060 ft 438 kts 254°
2026-05-07 11:51 50.85674 5.32073 28368 ft 440 kts 254°
2026-05-07 11:51 50.84825 5.27434 28670 ft 442 kts 254°
2026-05-07 11:52 50.83961 5.22723 28981 ft 444 kts 254°
2026-05-07 11:52 50.83101 5.18044 29291 ft 445 kts 254°
2026-05-07 11:52 50.82236 5.13345 29716 ft 444 kts 254°
2026-05-07 11:52 50.81372 5.08665 30198 ft 441 kts 253°
2026-05-07 11:53 50.80691 5.04993 30517 ft 439 kts 253°
2026-05-07 11:53 50.79835 5.00378 30868 ft 438 kts 253°
2026-05-07 11:53 50.78970 4.95718 31178 ft 438 kts 253°
2026-05-07 11:53 50.78111 4.91098 31506 ft 437 kts 253°
2026-05-07 11:54 50.77257 4.86509 31885 ft 435 kts 253°
2026-05-07 11:54 50.76429 4.82076 32236 ft 433 kts 253°
2026-05-07 11:54 50.75577 4.77523 32560 ft 433 kts 253°
2026-05-07 11:54 50.74721 4.72957 32873 ft 432 kts 253°
2026-05-07 11:55 50.73874 4.68445 33227 ft 430 kts 253°
2026-05-07 11:55 50.73030 4.63963 33561 ft 429 kts 253°
2026-05-07 11:55 50.72169 4.59410 33855 ft 428 kts 253°
2026-05-07 11:55 50.71325 4.54979 34102 ft 428 kts 253°
2026-05-07 11:56 50.70750 4.51972 34270 ft 428 kts 253°
2026-05-07 11:56 50.69602 4.45984 34535 ft 428 kts 253°
2026-05-07 11:56 50.68758 4.41592 34695 ft 429 kts 253°
2026-05-07 11:56 50.67925 4.37265 34896 ft 429 kts 253°
2026-05-07 11:57 50.67068 4.32821 35105 ft 429 kts 253°
2026-05-07 11:57 50.66483 4.29788 35260 ft 429 kts 253°
2026-05-07 11:57 50.65628 4.25372 35467 ft 428 kts 252°
2026-05-07 11:57 50.64744 4.20810 35636 ft 429 kts 252°
2026-05-07 11:58 50.63582 4.14832 35874 ft 429 kts 252°
2026-05-07 11:58 50.62991 4.11797 36008 ft 429 kts 252°
2026-05-07 11:58 50.62118 4.07328 36062 ft 432 kts 252°
2026-05-07 11:59 50.60343 3.98260 36066 ft 431 kts 252°
2026-05-07 11:59 50.58574 3.89361 36061 ft 428 kts 248°
2026-05-07 11:59 50.57129 3.85299 36068 ft 425 kts 231°
2026-05-07 12:00 50.55052 3.82024 36067 ft 424 kts 217°
2026-05-07 12:00 50.52529 3.79718 36076 ft 423 kts 205°
2026-05-07 12:00 50.49846 3.77883 36075 ft 427 kts 204°
2026-05-07 12:01 50.44292 3.74243 36077 ft 433 kts 204°
2026-05-07 12:01 50.38732 3.70562 36067 ft 436 kts 204°
2026-05-07 12:02 50.33166 3.66815 36068 ft 437 kts 204°
2026-05-07 12:02 50.27562 3.63025 36065 ft 438 kts 204°
2026-05-07 12:03 50.21973 3.59250 36066 ft 437 kts 204°
2026-05-07 12:03 50.16425 3.55514 36056 ft 435 kts 204°
2026-05-07 12:04 50.10927 3.51822 36059 ft 433 kts 204°
2026-05-07 12:04 50.05405 3.48124 36060 ft 431 kts 204°
2026-05-07 12:05 49.99923 3.44461 36063 ft 429 kts 204°
2026-05-07 12:05 49.94455 3.40816 36066 ft 427 kts 204°
2026-05-07 12:06 49.88995 3.37186 36063 ft 427 kts 204°
2026-05-07 12:06 49.83626 3.33625 36066 ft 427 kts 204°
2026-05-07 12:07 49.78164 3.30011 36070 ft 427 kts 204°
2026-05-07 12:07 49.72696 3.26403 36065 ft 428 kts 204°
2026-05-07 12:08 49.67212 3.22792 36067 ft 429 kts 204°
2026-05-07 12:08 49.62020 3.19381 36067 ft 430 kts 204°
2026-05-07 12:09 49.56526 3.15780 36075 ft 432 kts 204°
2026-05-07 12:09 49.51044 3.12196 36065 ft 433 kts 204°
2026-05-07 12:10 49.45678 3.07819 36076 ft 431 kts 214°
2026-05-07 12:10 49.40671 3.02659 36065 ft 432 kts 215°
2026-05-07 12:11 49.35685 2.97520 36065 ft 432 kts 215°
2026-05-07 12:11 49.30665 2.92418 36068 ft 432 kts 214°
2026-05-07 12:12 49.25653 2.87362 36062 ft 431 kts 214°
2026-05-07 12:12 49.20864 2.82546 36071 ft 431 kts 214°
2026-05-07 12:13 49.15857 2.77521 36071 ft 430 kts 214°
2026-05-07 12:13 49.10983 2.72640 36069 ft 429 kts 214°
2026-05-07 12:14 49.05979 2.67641 36076 ft 429 kts 214°
2026-05-07 12:14 49.01057 2.62734 36073 ft 428 kts 214°
2026-05-07 12:15 48.96073 2.57779 36082 ft 428 kts 214°
2026-05-07 12:15 48.91097 2.52842 36054 ft 427 kts 214°
2026-05-07 12:16 48.86114 2.47908 36057 ft 427 kts 214°
2026-05-07 12:16 48.81124 2.42978 36036 ft 427 kts 214°
2026-05-07 12:17 48.76168 2.38091 36048 ft 427 kts 214°
2026-05-07 12:17 48.71169 2.33174 36051 ft 427 kts 214°
2026-05-07 12:18 48.66195 2.28293 36049 ft 427 kts 214°
2026-05-07 12:18 48.61217 2.23418 36050 ft 427 kts 214°
2026-05-07 12:19 48.56433 2.19353 36047 ft 429 kts 203°
2026-05-07 12:19 48.50684 2.17047 36060 ft 431 kts 193°
2026-05-07 12:20 48.44753 2.15249 36044 ft 432 kts 193°
2026-05-07 12:20 48.38895 2.13403 36046 ft 431 kts 194°
2026-05-07 12:21 48.33009 2.11510 36052 ft 432 kts 194°
2026-05-07 12:21 48.27104 2.10333 36051 ft 435 kts 181°
2026-05-07 12:22 48.21024 2.11466 36048 ft 438 kts 173°
2026-05-07 12:22 48.15118 2.12824 36044 ft 437 kts 174°
2026-05-07 12:23 48.09102 2.13568 36054 ft 435 kts 180°
2026-05-07 12:23 48.03204 2.13861 36043 ft 436 kts 181°
2026-05-07 12:24 47.97173 2.14159 36047 ft 436 kts 180°
2026-05-07 12:24 47.91082 2.14495 36048 ft 436 kts 180°
2026-05-07 12:25 47.85018 2.14846 36049 ft 436 kts 180°
2026-05-07 12:25 47.78954 2.15199 36048 ft 436 kts 180°
2026-05-07 12:26 47.72898 2.15550 36045 ft 436 kts 180°
2026-05-07 12:26 47.66845 2.15899 36045 ft 435 kts 180°
2026-05-07 12:27 47.60791 2.16247 36033 ft 435 kts 180°
2026-05-07 12:27 47.54735 2.16595 36035 ft 435 kts 180°
2026-05-07 12:28 47.48688 2.16941 36033 ft 435 kts 180°
2026-05-07 12:28 47.42651 2.17286 36030 ft 435 kts 180°
2026-05-07 12:29 47.36626 2.17629 36034 ft 435 kts 180°
2026-05-07 12:29 47.30605 2.17972 36035 ft 434 kts 180°
2026-05-07 12:30 47.24557 2.18315 36029 ft 434 kts 180°
2026-05-07 12:30 47.18567 2.18654 36038 ft 434 kts 180°
2026-05-07 12:31 47.12480 2.18998 36031 ft 434 kts 181°
2026-05-07 12:31 47.06571 2.18136 36033 ft 428 kts 198°
2026-05-07 12:32 47.00930 2.15353 36029 ft 426 kts 201°
2026-05-07 12:32 46.95372 2.12500 36041 ft 426 kts 201°
2026-05-07 12:33 46.87036 2.08314 36038 ft 426 kts 201°
2026-05-07 12:33 46.81430 2.05535 36039 ft 426 kts 201°
2026-05-07 12:34 46.75822 2.02764 36036 ft 426 kts 201°
2026-05-07 12:34 46.70226 2.00005 36038 ft 426 kts 201°
2026-05-07 12:35 46.64617 1.97245 36035 ft 426 kts 201°
2026-05-07 12:35 46.58998 1.94485 36027 ft 426 kts 201°
2026-05-07 12:36 46.53426 1.91755 36025 ft 425 kts 201°
2026-05-07 12:36 46.47793 1.89000 36016 ft 425 kts 201°
2026-05-07 12:37 46.42202 1.86272 36016 ft 424 kts 201°
2026-05-07 12:37 46.36671 1.83578 36014 ft 424 kts 201°
2026-05-07 12:38 46.31145 1.80893 36016 ft 423 kts 201°
2026-05-07 12:38 46.25729 1.77686 36015 ft 418 kts 212°
2026-05-07 12:39 46.21134 1.72655 36024 ft 414 kts 223°
2026-05-07 12:39 46.16835 1.67203 36016 ft 414 kts 223°
2026-05-07 12:40 46.12465 1.61716 36003 ft 414 kts 222°
2026-05-07 12:40 46.08095 1.56289 36003 ft 414 kts 222°
2026-05-07 12:41 46.03729 1.50889 36009 ft 414 kts 222°
2026-05-07 12:41 45.99348 1.45481 36005 ft 414 kts 222°
2026-05-07 12:42 45.95214 1.39756 36012 ft 412 kts 232°
2026-05-07 12:42 45.92242 1.32754 36036 ft 411 kts 243°
2026-05-07 12:43 45.89697 1.25404 36024 ft 412 kts 243°
2026-05-07 12:43 45.87143 1.18134 36017 ft 412 kts 243°
2026-05-07 12:44 45.84527 1.10789 36024 ft 412 kts 243°
2026-05-07 12:44 45.81724 1.03710 36023 ft 412 kts 233°
2026-05-07 12:45 45.78459 0.98680 36015 ft 415 kts 221°
2026-05-07 12:45 45.74048 0.93441 36012 ft 415 kts 220°
2026-05-07 12:46 45.69547 0.88142 36011 ft 415 kts 221°
2026-05-07 12:46 45.65106 0.82878 36008 ft 415 kts 221°
2026-05-07 12:47 45.60690 0.77626 36002 ft 415 kts 221°
2026-05-07 12:47 45.56239 0.72337 36004 ft 414 kts 221°
2026-05-07 12:48 45.51833 0.67112 36000 ft 414 kts 221°
2026-05-07 12:48 45.47371 0.61832 35998 ft 414 kts 220°
2026-05-07 12:49 45.42955 0.56619 35999 ft 414 kts 220°
2026-05-07 12:49 45.38550 0.51428 35992 ft 413 kts 220°
2026-05-07 12:50 45.34097 0.46193 35998 ft 413 kts 220°
2026-05-07 12:50 45.29701 0.41035 35998 ft 413 kts 220°
2026-05-07 12:51 45.25273 0.35850 35995 ft 412 kts 220°
2026-05-07 12:51 45.20848 0.30679 35996 ft 412 kts 220°
2026-05-07 12:52 45.16416 0.25511 35994 ft 412 kts 220°
2026-05-07 12:52 45.11982 0.20351 35995 ft 412 kts 220°
2026-05-07 12:53 45.07552 0.15204 35997 ft 412 kts 220°
2026-05-07 12:53 45.03110 0.10057 35992 ft 413 kts 220°
2026-05-07 12:54 44.98666 0.04921 35993 ft 413 kts 220°
2026-05-07 12:54 44.94258 -0.00165 35990 ft 413 kts 220°
2026-05-07 12:55 44.89818 -0.05280 35986 ft 413 kts 219°
2026-05-07 12:55 44.85345 -0.10422 35988 ft 413 kts 219°
2026-05-07 12:56 44.80904 -0.15518 35986 ft 414 kts 219°
2026-05-07 12:56 44.76424 -0.20648 35982 ft 414 kts 219°
2026-05-07 12:57 44.71948 -0.25763 35984 ft 414 kts 219°
2026-05-07 12:57 44.67473 -0.30869 35979 ft 415 kts 219°
2026-05-07 12:58 44.62916 -0.35855 35974 ft 415 kts 216°
2026-05-07 12:58 44.58154 -0.40425 35982 ft 415 kts 214°
2026-05-07 12:59 44.53362 -0.44953 35964 ft 415 kts 214°
2026-05-07 12:59 44.48587 -0.49514 35966 ft 415 kts 214°
2026-05-07 13:00 44.43830 -0.54076 35962 ft 415 kts 214°
2026-05-07 13:00 44.39104 -0.58605 35962 ft 414 kts 214°
2026-05-07 13:01 44.34349 -0.63151 35972 ft 414 kts 214°
2026-05-07 13:01 44.29564 -0.67717 35967 ft 414 kts 214°
2026-05-07 13:02 44.24803 -0.72200 35962 ft 414 kts 213°
2026-05-07 13:02 44.19994 -0.76612 35963 ft 413 kts 213°
2026-05-07 13:03 44.15212 -0.80986 35963 ft 413 kts 213°
2026-05-07 13:03 44.10376 -0.85413 35957 ft 413 kts 213°
2026-05-07 13:04 44.05606 -0.89778 35955 ft 413 kts 213°
2026-05-07 13:04 44.00799 -0.94170 35956 ft 413 kts 213°
2026-05-07 13:05 43.95988 -0.98557 35959 ft 413 kts 213°
2026-05-07 13:05 43.91179 -1.02933 35959 ft 414 kts 213°
2026-05-07 13:06 43.86368 -1.07303 35978 ft 414 kts 213°
2026-05-07 13:06 43.81550 -1.11670 35960 ft 414 kts 213°
2026-05-07 13:07 43.76728 -1.16032 35961 ft 414 kts 213°
2026-05-07 13:07 43.71908 -1.20385 35974 ft 414 kts 213°
2026-05-07 13:08 43.67083 -1.24733 35970 ft 414 kts 213°
2026-05-07 13:08 43.62250 -1.29080 35977 ft 414 kts 213°
2026-05-07 13:09 43.57426 -1.33410 35950 ft 414 kts 213°
2026-05-07 13:09 43.52595 -1.37738 35952 ft 414 kts 213°
2026-05-07 13:10 43.47779 -1.42045 35933 ft 414 kts 213°
2026-05-07 13:10 43.42936 -1.46368 35947 ft 413 kts 213°
2026-05-07 13:11 43.38108 -1.50670 35947 ft 413 kts 213°
2026-05-07 13:11 43.33291 -1.54954 35938 ft 413 kts 212°
2026-05-07 13:12 43.28453 -1.59201 35904 ft 412 kts 208°
2026-05-07 13:12 43.23120 -1.62011 35909 ft 413 kts 193°
2026-05-07 13:13 43.17422 -1.63085 35912 ft 413 kts 188°
2026-05-07 13:13 43.11714 -1.63957 35920 ft 413 kts 188°
2026-05-07 13:14 43.05998 -1.64866 35926 ft 413 kts 188°
2026-05-07 13:14 43.00339 -1.65791 35940 ft 413 kts 188°
2026-05-07 13:15 42.94645 -1.66727 35931 ft 413 kts 188°
2026-05-07 13:15 42.88945 -1.67660 35951 ft 413 kts 188°
2026-05-07 13:16 42.83235 -1.68595 35930 ft 413 kts 188°
2026-05-07 13:16 42.77517 -1.69529 35941 ft 413 kts 188°
2026-05-07 13:17 42.71939 -1.71196 35951 ft 411 kts 201°
2026-05-07 13:17 42.66782 -1.74553 35936 ft 411 kts 207°
2026-05-07 13:18 42.61671 -1.78055 35930 ft 411 kts 207°
2026-05-07 13:18 42.56563 -1.81504 35930 ft 411 kts 207°
2026-05-07 13:19 42.51428 -1.84940 35918 ft 411 kts 206°
2026-05-07 13:19 42.46292 -1.88370 35925 ft 411 kts 206°
2026-05-07 13:20 42.41162 -1.91790 35918 ft 411 kts 206°
2026-05-07 13:20 42.36043 -1.95203 35913 ft 411 kts 206°
2026-05-07 13:21 42.30949 -1.98599 35921 ft 410 kts 206°
2026-05-07 13:21 42.25849 -2.01996 35915 ft 410 kts 206°
2026-05-07 13:22 42.20717 -2.05402 35917 ft 410 kts 206°
2026-05-07 13:22 42.15612 -2.08782 35930 ft 409 kts 206°
2026-05-07 13:23 42.10483 -2.12170 35920 ft 410 kts 206°
2026-05-07 13:23 42.05369 -2.15542 35923 ft 410 kts 206°
2026-05-07 13:24 42.00246 -2.18916 35934 ft 410 kts 206°
2026-05-07 13:24 41.95122 -2.22284 35933 ft 410 kts 206°
2026-05-07 13:25 41.89983 -2.25656 35940 ft 411 kts 206°
2026-05-07 13:25 41.84843 -2.29024 35928 ft 412 kts 206°
2026-05-07 13:26 41.79678 -2.32401 35930 ft 413 kts 206°
2026-05-07 13:26 41.74512 -2.35773 35944 ft 414 kts 206°
2026-05-07 13:27 41.69335 -2.39146 35935 ft 414 kts 206°
2026-05-07 13:27 41.64144 -2.42522 35936 ft 415 kts 206°
2026-05-07 13:28 41.58943 -2.45899 35939 ft 416 kts 206°
2026-05-07 13:28 41.53733 -2.49277 35936 ft 417 kts 206°
2026-05-07 13:29 41.48512 -2.52652 35936 ft 417 kts 206°
2026-05-07 13:29 41.43320 -2.55991 35934 ft 417 kts 206°
2026-05-07 13:30 41.38058 -2.59370 35932 ft 418 kts 206°
2026-05-07 13:30 41.32653 -2.62042 35934 ft 419 kts 193°
2026-05-07 13:31 41.26826 -2.62618 35939 ft 423 kts 179°
2026-05-07 13:31 41.20950 -2.62038 35940 ft 424 kts 178°
2026-05-07 13:32 41.15056 -2.61443 35938 ft 426 kts 178°
2026-05-07 13:32 41.09141 -2.60897 35936 ft 426 kts 178°
2026-05-07 13:33 41.04227 -2.60457 35949 ft 427 kts 179°
2026-05-07 13:33 40.98287 -2.59926 35949 ft 428 kts 179°
2026-05-07 13:34 40.89346 -2.59128 35942 ft 431 kts 179°
2026-05-07 13:35 40.83350 -2.58592 35939 ft 432 kts 179°
2026-05-07 13:35 40.77352 -2.58055 35943 ft 431 kts 179°
2026-05-07 13:36 40.71377 -2.57523 35940 ft 429 kts 179°
2026-05-07 13:36 40.65434 -2.56996 35949 ft 428 kts 179°
2026-05-07 13:37 40.59504 -2.56469 35948 ft 426 kts 179°
2026-05-07 13:37 40.53598 -2.55947 35953 ft 425 kts 179°
2026-05-07 13:38 40.47698 -2.55425 35953 ft 424 kts 179°
2026-05-07 13:38 40.41797 -2.54905 35958 ft 423 kts 179°
2026-05-07 13:39 40.36011 -2.55338 35963 ft 417 kts 194°
2026-05-07 13:39 40.30545 -2.57718 35960 ft 414 kts 203°
2026-05-07 13:40 40.25167 -2.60485 35953 ft 415 kts 203°
2026-05-07 13:40 40.19778 -2.63232 35962 ft 417 kts 203°
2026-05-07 13:41 40.14348 -2.65963 35961 ft 419 kts 203°
2026-05-07 13:41 40.08902 -2.68684 35959 ft 420 kts 203°
2026-05-07 13:42 40.03477 -2.71389 35957 ft 421 kts 203°
2026-05-07 13:42 39.97983 -2.74123 35962 ft 422 kts 203°
2026-05-07 13:43 39.92450 -2.76873 35953 ft 423 kts 203°
2026-05-07 13:43 39.86997 -2.79578 35947 ft 423 kts 203°
2026-05-07 13:44 39.81504 -2.82299 35948 ft 423 kts 203°
2026-05-07 13:44 39.75983 -2.85028 35959 ft 423 kts 204°
2026-05-07 13:45 39.70494 -2.87738 35936 ft 423 kts 204°
2026-05-07 13:45 39.64998 -2.90448 35936 ft 423 kts 204°
2026-05-07 13:46 39.59495 -2.93155 35945 ft 423 kts 204°
2026-05-07 13:46 39.54005 -2.95858 35944 ft 423 kts 204°
2026-05-07 13:47 39.48502 -2.98570 35934 ft 423 kts 204°
2026-05-07 13:47 39.43027 -3.01263 35937 ft 423 kts 204°
2026-05-07 13:48 39.37514 -3.03964 35934 ft 423 kts 204°
2026-05-07 13:48 39.32042 -3.06620 35934 ft 424 kts 204°
2026-05-07 13:49 39.26481 -3.09313 35936 ft 424 kts 205°
2026-05-07 13:49 39.20983 -3.11975 35934 ft 425 kts 205°
2026-05-07 13:50 39.15445 -3.14653 35941 ft 426 kts 205°
2026-05-07 13:50 39.09885 -3.17337 35939 ft 428 kts 205°
2026-05-07 13:51 39.04297 -3.20031 35938 ft 429 kts 205°
2026-05-07 13:51 38.98690 -3.22729 35936 ft 430 kts 205°
2026-05-07 13:52 38.93091 -3.25427 35941 ft 431 kts 205°
2026-05-07 13:52 38.87460 -3.28139 35934 ft 432 kts 206°
2026-05-07 13:53 38.81828 -3.30848 35932 ft 433 kts 206°
2026-05-07 13:53 38.76202 -3.33549 35933 ft 433 kts 206°
2026-05-07 13:54 38.70570 -3.36247 35935 ft 433 kts 206°
2026-05-07 13:54 38.64911 -3.38954 35936 ft 433 kts 206°
2026-05-07 13:55 38.59275 -3.41646 35937 ft 432 kts 206°
2026-05-07 13:55 38.53640 -3.44333 35937 ft 432 kts 207°
2026-05-07 13:56 38.48004 -3.47015 35933 ft 432 kts 207°
2026-05-07 13:56 38.42384 -3.49686 35931 ft 431 kts 207°
2026-05-07 13:57 38.36797 -3.52335 35939 ft 430 kts 207°
2026-05-07 13:57 38.31192 -3.54992 35929 ft 430 kts 207°
2026-05-07 13:58 38.25599 -3.57638 35935 ft 430 kts 208°
2026-05-07 13:58 38.20006 -3.60280 35935 ft 430 kts 208°
2026-05-07 13:59 38.14374 -3.62967 35927 ft 429 kts 210°
2026-05-07 13:59 38.08917 -3.65984 35934 ft 426 kts 212°
2026-05-07 14:00 38.03538 -3.69099 35932 ft 427 kts 213°
2026-05-07 14:00 37.98105 -3.72214 35926 ft 427 kts 212°
2026-05-07 14:01 37.92695 -3.75277 35926 ft 426 kts 213°
2026-05-07 14:01 37.87383 -3.78269 35925 ft 424 kts 213°
2026-05-07 14:02 37.81978 -3.81306 35927 ft 423 kts 213°
2026-05-07 14:02 37.76615 -3.84316 35932 ft 422 kts 213°
2026-05-07 14:03 37.71245 -3.87327 35928 ft 421 kts 213°
2026-05-07 14:03 37.65899 -3.90320 35927 ft 420 kts 213°
2026-05-07 14:04 37.60553 -3.93306 35927 ft 419 kts 213°
2026-05-07 14:04 37.55224 -3.96280 35930 ft 418 kts 213°
2026-05-07 14:05 37.49908 -3.99240 35923 ft 417 kts 213°
2026-05-07 14:05 37.44607 -4.02189 35923 ft 417 kts 213°
2026-05-07 14:06 37.39302 -4.05135 35915 ft 416 kts 213°
2026-05-07 14:06 37.34019 -4.08063 35905 ft 415 kts 213°
2026-05-07 14:07 37.28750 -4.10979 35914 ft 413 kts 213°
2026-05-07 14:07 37.23536 -4.13861 35929 ft 412 kts 213°
2026-05-07 14:08 37.18294 -4.16756 35940 ft 412 kts 213°
2026-05-07 14:08 37.13042 -4.19652 35937 ft 413 kts 213°
2026-05-07 14:09 37.07765 -4.22558 35936 ft 415 kts 213°
2026-05-07 14:09 37.02463 -4.25470 35922 ft 417 kts 213°
2026-05-07 14:10 36.97162 -4.28376 35940 ft 416 kts 213°
2026-05-07 14:10 36.91881 -4.31269 35934 ft 416 kts 213°
2026-05-07 14:11 36.86608 -4.34154 35932 ft 416 kts 213°
2026-05-07 14:11 36.81323 -4.37088 35930 ft 413 kts 216°
2026-05-07 14:12 36.76496 -4.40792 35930 ft 406 kts 221°
2026-05-07 14:12 36.71749 -4.44620 35933 ft 407 kts 221°
2026-05-07 14:13 36.66991 -4.48424 35926 ft 406 kts 221°
2026-05-07 14:13 36.62221 -4.52208 35928 ft 406 kts 221°
2026-05-07 14:14 36.57457 -4.55975 35944 ft 406 kts 221°
2026-05-07 14:14 36.52691 -4.59736 35933 ft 406 kts 221°
2026-05-07 14:15 36.47927 -4.63491 35932 ft 406 kts 221°
2026-05-07 14:15 36.43155 -4.67247 35938 ft 406 kts 220°
2026-05-07 14:16 36.38392 -4.70990 35933 ft 406 kts 220°
2026-05-07 14:16 36.33618 -4.74737 35927 ft 406 kts 220°
2026-05-07 14:17 36.28848 -4.78475 35929 ft 406 kts 220°
2026-05-07 14:17 36.24878 -4.81582 35924 ft 406 kts 220°
2026-05-07 14:18 36.19295 -4.85947 35925 ft 406 kts 220°
2026-05-07 14:18 36.15321 -4.89047 35926 ft 407 kts 220°
2026-05-07 14:19 36.09779 -4.93428 35917 ft 406 kts 220°
2026-05-07 14:19 36.05803 -4.96594 35919 ft 406 kts 220°
2026-05-07 14:20 36.01045 -5.00372 35917 ft 407 kts 220°
2026-05-07 14:20 35.96280 -5.04147 35920 ft 407 kts 220°
2026-05-07 14:21 35.91512 -5.07916 35924 ft 407 kts 220°
2026-05-07 14:21 35.86742 -5.11684 35918 ft 407 kts 220°
2026-05-07 14:22 35.82014 -5.15506 35916 ft 405 kts 223°
2026-05-07 14:22 35.77509 -5.19626 35916 ft 403 kts 224°
2026-05-07 14:23 35.73041 -5.23803 35914 ft 403 kts 224°
2026-05-07 14:23 35.68565 -5.27958 35913 ft 403 kts 224°
2026-05-07 14:24 35.64078 -5.32092 35905 ft 403 kts 224°
2026-05-07 14:24 35.59594 -5.36208 35919 ft 402 kts 224°
2026-05-07 14:25 35.55118 -5.40309 35906 ft 402 kts 224°
2026-05-07 14:25 35.50621 -5.44424 35910 ft 403 kts 224°
2026-05-07 14:26 35.46161 -5.48498 35918 ft 402 kts 224°
2026-05-07 14:26 35.41649 -5.52615 35924 ft 402 kts 223°
2026-05-07 14:27 35.37164 -5.56700 35931 ft 402 kts 223°
2026-05-07 14:27 35.32679 -5.60781 35939 ft 403 kts 223°
2026-05-07 14:28 35.28167 -5.64880 35943 ft 403 kts 223°
2026-05-07 14:28 35.23668 -5.68962 35942 ft 403 kts 223°
2026-05-07 14:29 35.19159 -5.73046 35942 ft 403 kts 223°
2026-05-07 14:29 35.14666 -5.77110 35942 ft 404 kts 223°
2026-05-07 14:30 35.10151 -5.81189 35936 ft 404 kts 223°
2026-05-07 14:30 35.05633 -5.85264 35951 ft 403 kts 223°
2026-05-07 14:31 35.01125 -5.89324 35946 ft 403 kts 223°
2026-05-07 14:31 34.96607 -5.93389 35943 ft 403 kts 223°
2026-05-07 14:32 34.92105 -5.97433 35949 ft 402 kts 223°
2026-05-07 14:32 34.87591 -6.01483 35942 ft 403 kts 223°
2026-05-07 14:33 34.83080 -6.05523 35945 ft 403 kts 223°
2026-05-07 14:33 34.78578 -6.09550 35941 ft 403 kts 223°
2026-05-07 14:34 34.74059 -6.13587 35943 ft 402 kts 223°
2026-05-07 14:34 34.69542 -6.17617 35937 ft 402 kts 222°
2026-05-07 14:35 34.65030 -6.21636 35942 ft 402 kts 222°
2026-05-07 14:35 34.60550 -6.25622 35940 ft 402 kts 222°
2026-05-07 14:36 34.56222 -6.29467 35938 ft 402 kts 222°
2026-05-07 14:36 34.51664 -6.33511 35937 ft 403 kts 222°
2026-05-07 14:37 34.47164 -6.37498 35941 ft 403 kts 222°
2026-05-07 14:37 34.40379 -6.43500 35947 ft 404 kts 222°
2026-05-07 14:38 34.35838 -6.47509 35932 ft 404 kts 221°
2026-05-07 14:38 34.31295 -6.51515 35927 ft 404 kts 221°
2026-05-07 14:39 34.26743 -6.55523 35932 ft 405 kts 221°
2026-05-07 14:39 34.22194 -6.59524 35935 ft 405 kts 221°
2026-05-07 14:40 34.17632 -6.63530 35941 ft 405 kts 221°
2026-05-07 14:40 34.13077 -6.67526 35940 ft 405 kts 221°
2026-05-07 14:41 34.08514 -6.71524 35940 ft 405 kts 221°
2026-05-07 14:41 34.03950 -6.75500 35932 ft 405 kts 220°
2026-05-07 14:42 33.99300 -6.79349 35939 ft 406 kts 219°
2026-05-07 14:42 33.94622 -6.83161 35939 ft 406 kts 219°
2026-05-07 14:43 33.89963 -6.86969 35936 ft 405 kts 219°
2026-05-07 14:43 33.85295 -6.90794 35940 ft 405 kts 219°
2026-05-07 14:44 33.80636 -6.94612 35937 ft 405 kts 219°
2026-05-07 14:44 33.75971 -6.98429 35938 ft 405 kts 219°
2026-05-07 14:45 33.71314 -7.02235 35938 ft 405 kts 219°
2026-05-07 14:45 33.66661 -7.06033 35939 ft 404 kts 219°
2026-05-07 14:46 33.62010 -7.09824 35935 ft 404 kts 219°
2026-05-07 14:46 33.57409 -7.13565 35926 ft 395 kts 219°
2026-05-07 14:47 33.52890 -7.17238 35927 ft 392 kts 219°
2026-05-07 14:47 33.50632 -7.19074 35621 ft 393 kts 219°
2026-05-07 14:47 33.48383 -7.20899 35312 ft 387 kts 219°
2026-05-07 14:48 33.46159 -7.22702 34937 ft 384 kts 219°
2026-05-07 14:48 33.43966 -7.24479 34568 ft 380 kts 220°
2026-05-07 14:48 33.41783 -7.26247 34196 ft 378 kts 220°
2026-05-07 14:48 33.39606 -7.28010 33802 ft 375 kts 220°
2026-05-07 14:49 33.37501 -7.29714 33400 ft 373 kts 220°
2026-05-07 14:49 33.35318 -7.31480 32996 ft 370 kts 220°
2026-05-07 14:49 33.33218 -7.33177 32628 ft 367 kts 220°
2026-05-07 14:49 33.31088 -7.34898 32251 ft 364 kts 220°
2026-05-07 14:50 33.28999 -7.36584 31892 ft 361 kts 220°
2026-05-07 14:50 33.26929 -7.38254 31540 ft 358 kts 220°
2026-05-07 14:50 33.24871 -7.39915 31194 ft 355 kts 220°
2026-05-07 14:50 33.22832 -7.41559 30837 ft 353 kts 220°
2026-05-07 14:51 33.20827 -7.43175 30492 ft 351 kts 220°
2026-05-07 14:51 33.18822 -7.44791 30147 ft 349 kts 220°
2026-05-07 14:51 33.16809 -7.46410 29761 ft 347 kts 219°
2026-05-07 14:51 33.14811 -7.48016 29376 ft 344 kts 219°
2026-05-07 14:52 33.12702 -7.49382 28996 ft 348 kts 208°
2026-05-07 14:52 33.10397 -7.50256 28661 ft 350 kts 200°
2026-05-07 14:52 33.07970 -7.50659 28303 ft 355 kts 189°
2026-05-07 14:52 33.05492 -7.50680 27957 ft 354 kts 187°
2026-05-07 14:53 33.03045 -7.50638 27597 ft 352 kts 186°
2026-05-07 14:53 33.00593 -7.50592 27242 ft 350 kts 187°
2026-05-07 14:53 32.98175 -7.50558 26891 ft 347 kts 187°
2026-05-07 14:53 32.95768 -7.50537 26552 ft 344 kts 187°
2026-05-07 14:54 32.93382 -7.50523 26205 ft 342 kts 187°
2026-05-07 14:54 32.91013 -7.50513 25878 ft 339 kts 187°
2026-05-07 14:54 32.88656 -7.50504 25536 ft 337 kts 187°
2026-05-07 14:54 32.86316 -7.50494 25216 ft 335 kts 187°
2026-05-07 14:55 32.83996 -7.50474 24950 ft 331 kts 187°
2026-05-07 14:55 32.81697 -7.50451 24625 ft 330 kts 187°
2026-05-07 14:55 32.79405 -7.50428 24305 ft 329 kts 187°
2026-05-07 14:55 32.77130 -7.50406 23974 ft 327 kts 187°
2026-05-07 14:56 32.74854 -7.50384 23650 ft 326 kts 186°
2026-05-07 14:56 32.72585 -7.50363 23279 ft 325 kts 187°
2026-05-07 14:56 32.70325 -7.50342 22914 ft 324 kts 187°
2026-05-07 14:56 32.68080 -7.50320 22561 ft 322 kts 187°
2026-05-07 14:57 32.65852 -7.50299 22226 ft 319 kts 187°
2026-05-07 14:57 32.63646 -7.50290 21952 ft 315 kts 187°
2026-05-07 14:57 32.61462 -7.50280 21630 ft 313 kts 187°
2026-05-07 14:57 32.59289 -7.50266 21311 ft 311 kts 187°
2026-05-07 14:58 32.57160 -7.50249 21002 ft 309 kts 187°
2026-05-07 14:58 32.54989 -7.50233 20688 ft 307 kts 187°
2026-05-07 14:58 32.52860 -7.50217 20374 ft 305 kts 187°
2026-05-07 14:58 32.50739 -7.50202 20057 ft 304 kts 187°
2026-05-07 14:59 32.48660 -7.50186 19759 ft 302 kts 187°
2026-05-07 14:59 32.46576 -7.50172 19446 ft 301 kts 187°
2026-05-07 14:59 32.44467 -7.50157 19140 ft 300 kts 187°
2026-05-07 14:59 32.42389 -7.50142 18829 ft 299 kts 187°
2026-05-07 15:00 32.40316 -7.50128 18532 ft 298 kts 187°
2026-05-07 15:00 32.38246 -7.50113 18217 ft 297 kts 187°
2026-05-07 15:00 32.36187 -7.50099 17878 ft 296 kts 187°
2026-05-07 15:00 32.34130 -7.50084 17539 ft 294 kts 186°
2026-05-07 15:01 32.32099 -7.50070 17225 ft 292 kts 186°
2026-05-07 15:01 32.30070 -7.50055 16911 ft 290 kts 186°
2026-05-07 15:01 32.28058 -7.50041 16612 ft 288 kts 186°
2026-05-07 15:01 32.26062 -7.50026 16311 ft 286 kts 185°
2026-05-07 15:02 32.24069 -7.50013 16011 ft 285 kts 185°
2026-05-07 15:02 32.22094 -7.49999 15712 ft 284 kts 185°
2026-05-07 15:02 32.20126 -7.49985 15416 ft 282 kts 185°
2026-05-07 15:02 32.18163 -7.49971 15119 ft 281 kts 184°
2026-05-07 15:03 32.16219 -7.49958 14820 ft 280 kts 184°
2026-05-07 15:03 32.14265 -7.49944 14533 ft 279 kts 184°
2026-05-07 15:03 32.12326 -7.49930 14228 ft 278 kts 183°
2026-05-07 15:03 32.10391 -7.49917 13941 ft 278 kts 183°
2026-05-07 15:04 32.08511 -7.50278 13605 ft 273 kts 204°
2026-05-07 15:04 32.06902 -7.51424 13145 ft 274 kts 224°
2026-05-07 15:04 32.06025 -7.52492 12967 ft 272 kts 227°
2026-05-07 15:04 32.04756 -7.54144 12632 ft 271 kts 228°
2026-05-07 15:05 32.03508 -7.55793 12326 ft 270 kts 228°
2026-05-07 15:05 32.02261 -7.57437 12028 ft 269 kts 227°
2026-05-07 15:05 32.01012 -7.59078 11731 ft 267 kts 227°
2026-05-07 15:05 31.99755 -7.60722 11446 ft 265 kts 227°
2026-05-07 15:06 31.98538 -7.62308 11160 ft 264 kts 227°
2026-05-07 15:06 31.97317 -7.63898 10886 ft 262 kts 227°
2026-05-07 15:06 31.96096 -7.65485 10588 ft 261 kts 226°
2026-05-07 15:06 31.94875 -7.67068 10304 ft 260 kts 227°
2026-05-07 15:07 31.93651 -7.68656 10064 ft 257 kts 227°
2026-05-07 15:07 31.92485 -7.70166 9933 ft 250 kts 226°
2026-05-07 15:07 31.91314 -7.71683 9651 ft 250 kts 226°
2026-05-07 15:07 31.90150 -7.73190 9365 ft 249 kts 226°
2026-05-07 15:08 31.89010 -7.74666 9096 ft 248 kts 227°
2026-05-07 15:08 31.87832 -7.76189 8812 ft 247 kts 227°
2026-05-07 15:08 31.86657 -7.77707 8542 ft 246 kts 227°
2026-05-07 15:08 31.85522 -7.79171 8281 ft 246 kts 227°
2026-05-07 15:09 31.84317 -7.80574 8026 ft 241 kts 213°
2026-05-07 15:09 31.82783 -7.81255 7750 ft 235 kts 189°
2026-05-07 15:09 31.81151 -7.81303 7398 ft 234 kts 179°
2026-05-07 15:09 31.79526 -7.81176 7027 ft 235 kts 177°
2026-05-07 15:10 31.77896 -7.81030 6656 ft 235 kts 177°
2026-05-07 15:10 31.76270 -7.80891 6296 ft 235 kts 177°
2026-05-07 15:10 31.74645 -7.80759 5973 ft 234 kts 177°
2026-05-07 15:10 31.73037 -7.80635 5612 ft 228 kts 178°
2026-05-07 15:11 31.71481 -7.80521 5299 ft 221 kts 178°
2026-05-07 15:11 31.69970 -7.80411 4980 ft 215 kts 178°
2026-05-07 15:11 31.68496 -7.80305 4686 ft 209 kts 178°
2026-05-07 15:11 31.67057 -7.80202 4352 ft 206 kts 178°
2026-05-07 15:12 31.65643 -7.80314 4010 ft 202 kts 190°
2026-05-07 15:12 31.64250 -7.80504 3717 ft 203 kts 187°
2026-05-07 15:12 31.62863 -7.80673 3368 ft 203 kts 187°
2026-05-07 15:12 31.61471 -7.80841 3210 ft 190 kts 188°
2026-05-07 15:13 31.60180 -7.81016 3202 ft 185 kts 199°
2026-05-07 15:13 31.59187 -7.81870 3219 ft 178 kts 242°
2026-05-07 15:13 31.58904 -7.83256 3223 ft 178 kts 272°
2026-05-07 15:13 31.59008 -7.84675 3224 ft 165 kts 276°
2026-05-07 15:14 31.59120 -7.85958 3193 ft 159 kts 277°
2026-05-07 15:14 31.59234 -7.87220 3218 ft 155 kts 277°
2026-05-07 15:14 31.59346 -7.88496 3218 ft 159 kts 278°
2026-05-07 15:14 31.59462 -7.89790 3113 ft 160 kts 277°
2026-05-07 15:15 31.59580 -7.91085 2897 ft 157 kts 278°
2026-05-07 15:15 31.59692 -7.92346 2731 ft 153 kts 277°
2026-05-07 15:15 31.59803 -7.93595 2588 ft 156 kts 277°
2026-05-07 15:15 31.59916 -7.94874 2455 ft 158 kts 277°
2026-05-07 15:16 31.60024 -7.96156 2378 ft 157 kts 277°
2026-05-07 15:16 31.60147 -7.97438 2343 ft 160 kts 277°
2026-05-07 15:16 31.60262 -7.98746 2137 ft 161 kts 277°
2026-05-07 15:16 31.60370 -8.00043 1898 ft 162 kts 277°
2026-05-07 15:17 31.60482 -8.01348 1707 ft 159 kts 277°
2026-05-07 15:17 31.60592 -8.02621 1553 ft 154 kts 275°
2026-05-07 15:17 31.60699 -8.03748 1532 ft 110 kts 276°
2026-05-07 15:17 31.60760 -8.04419 1520 ft 66 kts 276°
2026-05-07 15:18 31.60802 -8.04896 1515 ft 52 kts 276°
2026-05-07 15:18 31.60820 -8.05173 1514 ft 18 kts 258°
2026-05-07 15:18 31.60744 -8.05245 1513 ft 14 kts 189°
2026-05-07 15:18 31.60719 -8.05248 1514 ft 0 kts 182°
2026-05-07 15:19 31.60711 -8.05248 1514 ft 4 kts 182°
2026-05-07 15:20 31.60666 -8.05228 1512 ft 9 kts 130°
2026-05-07 15:20 31.60650 -8.05142 1516 ft 12 kts 95°
2026-05-07 15:20 31.60640 -8.05032 1517 ft 15 kts 96°
2026-05-07 15:20 31.60629 -8.04905 1518 ft 17 kts 96°
2026-05-07 15:21 31.60616 -8.04758 1520 ft 19 kts 96°
2026-05-07 15:21 31.60602 -8.04598 1522 ft 21 kts 96°
2026-05-07 15:21 31.60587 -8.04422 1524 ft 23 kts 96°
2026-05-07 15:21 31.60570 -8.04234 1523 ft 24 kts 96°
2026-05-07 15:22 31.60553 -8.04031 1529 ft 26 kts 96°
2026-05-07 15:22 31.60534 -8.03818 1531 ft 27 kts 96°
2026-05-07 15:22 31.60518 -8.03643 1533 ft 22 kts 96°
2026-05-07 15:22 31.60502 -8.03460 1534 ft 23 kts 96°
2026-05-07 15:23 31.60485 -8.03266 1538 ft 25 kts 96°
2026-05-07 15:23 31.60468 -8.03065 1537 ft 18 kts 96°
2026-05-07 15:23 31.60454 -8.02914 1534 ft 20 kts 96°
2026-05-07 15:23 31.60439 -8.02749 1542 ft 21 kts 96°
2026-05-07 15:24 31.60423 -8.02566 1547 ft 23 kts 96°
2026-05-07 15:24 31.60406 -8.02452 1542 ft 7 kts 126°
2026-05-07 15:24 31.60354 -8.02446 1548 ft 10 kts 186°
2026-05-07 15:24 31.60301 -8.02453 1539 ft 0 kts 186°
2026-05-07 15:25 31.60295 -8.02453 1544 ft 0 kts 185°